Date String (YYYY-MM-DD hh:mm:ss) UTC,Instrument flags,absolute air pressure of the measurement (hPa),sample flow rate (lpm),inlet stack bypass flow (lpm),air temperature of the measurement (°C),ambient temperature measured by the external sensor (°C),aerosol sample conditioner tube jacket temperature (°C),OPC LED temperature (°C),internal box temperature (°C),relative humidity of the measurement (%),span deviation,mass concentration of particles derived from Lorenz-Mie calculation of OPC scattering (μg/m³),mass concentration of particles derived from Lorenz-Mie calculation of OPC scattering (μg/m³),mass concentration of particles derived from Lorenz-Mie calculation of OPC scattering (μg/m³)
DateTimeUTC,F1_M11,P_M11,Q1_M11,Q2_M11,T1_M11,T2_M11,T3_M11,T4_M11,T5_M11,U1_M11,ZSPAN_M11,X2_M11,X0_M11,X1_M11
2023-11-01 18:00:00,SystemResetWarning,0832.2,5.00,000.00,022.8,022.1,000.0,031.1,024.3,15.8,0000.0,0000.82,0001.34,0000.69
2023-11-01 18:01:00,SystemResetWarning,0832.2,5.00,000.00,022.8,022.1,000.0,031.1,024.4,15.3,0000.0,0000.80,0001.29,0000.68
2023-11-01 18:02:00,SystemResetWarning,0832.1,5.00,000.00,022.9,022.1,000.0,031.1,024.4,16.3,0000.0,0000.79,0001.26,0000.67
2023-11-01 18:03:00,SystemResetWarning,0832.1,5.00,000.00,022.9,022.1,000.0,031.1,024.4,15.3,0000.0,0000.80,0001.31,0000.67
2023-11-01 18:04:00,SystemResetWarning,0832.1,5.00,000.00,022.9,022.1,000.0,031.2,024.4,13.7,0000.0,0000.79,0001.31,0000.67
2023-11-01 18:05:00,SystemResetWarning,0832.1,5.00,000.00,022.9,022.1,000.0,031.2,024.4,13.5,0000.0,0000.79,0001.33,0000.66
2023-11-01 18:06:00,SystemResetWarning,0832.1,5.00,000.00,022.9,022.1,000.0,031.2,024.4,15.1,0000.0,0000.79,0001.33,0000.66
2023-11-01 18:07:00,SystemResetWarning,0832.0,5.00,000.00,022.9,022.2,000.0,031.2,024.4,14.8,0000.0,0000.76,0001.24,0000.64
2023-11-01 18:08:00,SystemResetWarning,0832.0,5.00,000.00,022.9,022.2,000.0,031.2,024.5,14.4,0000.0,0000.71,0000.94,0000.62
2023-11-01 18:09:00,SystemResetWarning,0832.0,5.00,000.00,023.0,022.2,000.0,031.2,024.5,14.1,0000.0,0000.69,0000.91,0000.60
2023-11-01 18:10:00,SystemResetWarning,0832.0,5.00,000.00,023.0,022.2,000.0,031.2,024.5,13.2,0000.0,0000.69,0000.92,0000.59
2023-11-01 18:11:00,SystemResetWarning,0832.0,5.00,000.00,023.0,022.2,000.0,031.2,024.5,12.5,0000.0,0000.68,0000.92,0000.59
2023-11-01 18:12:00,SystemResetWarning,0831.9,5.01,000.00,023.0,022.3,000.0,031.3,024.5,11.6,0000.0,0000.70,0000.96,0000.59
2023-11-01 18:13:00,SystemResetWarning,0831.9,5.00,000.00,023.0,022.3,000.0,031.3,024.5,12.0,0000.0,0000.72,0001.01,0000.61
2023-11-01 18:14:00,SystemResetWarning,0831.9,5.00,000.00,023.0,022.3,000.0,031.3,024.5,14.3,0000.0,0000.78,0001.06,0000.66
2023-11-01 18:15:00,SystemResetWarning,0831.8,5.00,000.00,023.1,022.3,000.0,031.3,024.6,15.3,0000.0,0000.90,0001.18,0000.75
2023-11-01 18:16:00,SystemResetWarning,0831.9,5.01,000.00,023.1,022.3,000.0,031.3,024.6,14.9,0000.0,0001.02,0001.31,0000.86
2023-11-01 18:17:00,SystemResetWarning,0832.2,5.00,000.00,023.1,022.3,000.0,031.3,024.6,11.3,0000.0,0001.13,0001.44,0000.96
2023-11-01 18:18:00,SystemResetWarning,0831.8,5.01,000.00,023.1,022.3,000.0,031.3,024.6,10.2,0000.0,0001.27,0001.60,0001.07
2023-11-01 18:19:00,SystemResetWarning,0831.7,5.01,000.00,023.1,022.3,000.0,031.3,024.6,10.1,0000.0,0001.42,0001.80,0001.19
2023-11-01 18:20:00,SystemResetWarning,0831.7,5.00,000.00,023.1,022.3,000.0,031.4,024.6,10.0,0000.0,0001.54,0001.95,0001.29
2023-11-01 18:21:00,SystemResetWarning,0831.6,4.99,000.00,023.1,022.3,000.0,031.4,024.6,10.0,0000.0,0001.64,0002.61,0001.38
2023-11-01 18:22:00,SystemResetWarning,0831.6,4.99,000.00,023.1,022.3,000.0,031.4,024.6,10.0,0000.0,0001.71,0003.75,0001.45
2023-11-01 18:23:00,SystemResetWarning,0831.7,4.99,000.00,023.1,022.3,000.0,031.4,024.6,10.4,0000.0,0001.72,0003.74,0001.48
2023-11-01 18:24:00,SystemResetWarning,0831.7,4.99,000.00,023.1,022.3,000.0,031.4,024.6,11.0,0000.0,0001.76,0003.78,0001.52
2023-11-01 18:25:00,SystemResetWarning,0831.6,5.00,000.00,023.1,022.4,000.0,031.4,024.7,11.4,0000.0,0001.74,0003.75,0001.51
2023-11-01 18:26:00,SystemResetWarning,0831.6,5.01,000.00,023.2,022.4,000.0,031.4,024.7,11.6,0000.0,0001.68,0003.73,0001.46
2023-11-01 18:27:00,SystemResetWarning,0831.6,5.01,000.00,023.2,022.4,000.0,031.4,024.7,12.4,0000.0,0001.60,0003.65,0001.39
2023-11-01 18:28:00,SystemResetWarning,0831.5,5.01,000.00,023.2,022.4,000.0,031.5,024.7,10.9,0000.0,0001.55,0003.62,0001.32
2023-11-01 18:29:00,SystemResetWarning,0831.5,5.00,000.00,023.2,022.4,000.0,031.5,024.7,10.0,0000.0,0001.45,0003.55,0001.23
2023-11-01 18:30:00,SystemResetWarning,0831.5,5.00,000.00,023.2,022.4,000.0,031.5,024.7,11.1,0000.0,0001.33,0003.39,0001.13
2023-11-01 18:31:00,SystemResetWarning,0831.5,5.01,000.00,023.2,022.4,000.0,031.5,024.7,12.2,0000.0,0001.25,0003.31,0001.05
2023-11-01 18:32:00,SystemResetWarning,0831.5,5.00,000.00,023.2,022.4,000.0,031.5,024.7,12.5,0000.0,0001.19,0002.78,0000.99
2023-11-01 18:33:00,SystemResetWarning,0831.4,5.00,000.00,023.2,022.4,000.0,031.5,024.7,11.5,0000.0,0001.21,0001.75,0001.01
2023-11-01 18:34:00,SystemResetWarning,0831.4,5.00,000.00,023.2,022.4,000.0,031.5,024.7,10.6,0000.0,0001.32,0001.95,0001.06
2023-11-01 18:35:00,SystemResetWarning,0831.4,5.00,000.00,023.2,022.4,000.0,031.5,024.7,10.4,0000.0,0001.37,0002.04,0001.09
2023-11-01 18:36:00,SystemResetWarning,0831.4,5.00,000.00,023.2,022.4,000.0,031.5,024.7,11.2,0000.0,0001.44,0002.16,0001.12
2023-11-01 18:37:00,SystemResetWarning,0831.4,5.00,000.00,023.2,022.4,000.0,031.5,024.7,11.9,0000.0,0001.52,0002.28,0001.16
2023-11-01 18:38:00,SystemResetWarning,0831.5,5.01,000.00,023.3,022.4,000.0,031.6,024.7,12.4,0000.0,0001.60,0002.40,0001.23
2023-11-01 18:39:00,SystemResetWarning,0831.4,5.00,000.00,023.3,022.4,000.0,031.6,024.7,11.2,0000.0,0001.64,0002.42,0001.28
2023-11-01 18:40:00,SystemResetWarning,0831.3,4.99,000.00,023.3,022.4,000.0,031.6,024.7,10.0,0000.0,0001.65,0002.50,0001.30
2023-11-01 18:41:00,SystemResetWarning,0831.3,4.99,000.00,023.3,022.4,000.0,031.6,024.7,9.9,0000.0,0001.69,0002.54,0001.34
2023-11-01 18:42:00,SystemResetWarning,0831.3,4.99,000.00,023.3,022.4,000.0,031.6,024.8,10.7,0000.0,0001.77,0002.76,0001.39
2023-11-01 18:43:00,SystemResetWarning,0831.3,5.00,000.00,023.3,022.4,000.0,031.6,024.7,11.7,0000.0,0001.81,0002.77,0001.41
2023-11-01 18:44:00,SystemResetWarning,0831.3,5.01,000.00,023.3,022.4,000.0,031.6,024.7,13.2,0000.0,0001.79,0002.86,0001.39
2023-11-01 18:45:00,SystemResetWarning,0831.3,5.01,000.00,023.3,022.4,000.0,031.6,024.7,11.5,0000.0,0001.72,0002.74,0001.34
2023-11-01 18:46:00,SystemResetWarning,0831.3,5.01,000.00,023.3,022.4,000.0,031.6,024.7,11.3,0000.0,0001.63,0002.61,0001.28
2023-11-01 18:47:00,SystemResetWarning,0831.3,5.01,000.00,023.3,022.4,000.0,031.6,024.7,12.3,0000.0,0001.54,0002.46,0001.22
2023-11-01 18:48:00,SystemResetWarning,0831.3,5.00,000.00,023.3,022.4,000.0,031.6,024.8,11.8,0000.0,0001.44,0002.96,0001.15
2023-11-01 18:49:00,SystemResetWarning,0831.3,4.99,000.00,023.3,022.4,000.0,031.6,024.8,11.6,0000.0,0001.31,0002.81,0001.07
2023-11-01 18:50:00,SystemResetWarning,0831.3,4.99,000.00,023.3,022.4,000.0,031.6,024.8,10.7,0000.0,0001.32,0002.94,0001.04
2023-11-01 18:51:00,SystemResetWarning,0831.3,4.99,000.00,023.3,022.4,000.0,031.6,024.8,12.1,0000.0,0001.34,0002.98,0001.06
2023-11-01 18:52:00,SystemResetWarning,0831.3,5.00,000.00,023.3,022.4,000.0,031.6,024.8,12.2,0000.0,0001.33,0003.01,0001.03
2023-11-01 18:53:00,SystemResetWarning,0831.3,5.00,000.00,023.3,022.4,000.0,031.6,024.8,12.2,0000.0,0001.23,0002.78,0000.96
2023-11-01 18:54:00,SystemResetWarning,0831.3,5.00,000.00,023.3,022.4,000.0,031.6,024.8,13.0,0000.0,0001.16,0002.61,0000.89
2023-11-01 18:55:00,SystemResetWarning,0831.3,5.00,000.00,023.3,022.4,000.0,031.6,024.8,12.6,0000.0,0001.08,0002.42,0000.84
2023-11-01 18:56:00,SystemResetWarning,0831.3,5.00,000.00,023.3,022.4,000.0,031.7,024.8,12.7,0000.0,0001.02,0002.34,0000.79
2023-11-01 18:57:00,SystemResetWarning,0831.3,5.01,000.00,023.3,022.4,000.0,031.7,024.7,12.5,0000.0,0001.01,0002.32,0000.76
2023-11-01 18:58:00,SystemResetWarning,0831.3,5.00,000.00,023.3,022.4,000.0,031.7,024.8,11.4,0000.0,0001.00,0002.32,0000.74
2023-11-01 18:59:00,SystemResetWarning,0831.3,5.00,000.00,023.3,022.4,000.0,031.7,024.8,11.4,0000.0,0001.01,0001.88,0000.74
